Forside
METAR-TAF:

METAR-TAF

Lufthavne :

Sparta Community Airport (Hunter Field)

Sparta, Illinois, USA

Breddekreds: 38-08-56N, længdekreds: 089-41-55W, højde: 164 m

Aktuelle vejr

Denne rapport blev lavet for 22 minutter siden, kl. 17:35 UTC
Vind 14 kt fra østsydøst med vindstød på up til 17 kt
Temperatur -6°C
Fugtighed 68%
Tryk 1032 hPa
Sigt: 16.1 km
skyfri

METAR: KSAR 211735Z AUTO 12014G17KT 10SM CLR M06/M11 A3048 RMK AO2 T10631110

Tid: 11:57 (17:57 UTC)


TAF: fraværende

Vejrobservationer og prognoser fra mere end 4000 lufthavne (METAR og TAF).

De gule og røde prikker repræsenterer de meteorologiske stationer.

Flyt musen over at se navnet på stationen.

Så klik over at se vejr observationer og prognoser.

At skifte det kort: Klik på de grønne knapper med et sort kors for at zoome ind; på den grønne knap med en bindestreg for at zoome ud; eller på de grønne pile for tilstødende kort.


METAR-TAF: